Terug naar catalogus

GAOFEN 13 DEB

ActiefMEO
NORAD 62337·DEBRIS·🇨🇳 China

Gelanceerd Oct 11, 2020 vanaf Xichang Satellite Launch Center

Loading…

Volgende Passages (komende 24 uur)

TLE

VersSource: Space-Track

Epoch: Sep 13, 2026, 22:49 UTC

1 62337U 20071C   26256.95125662 -.00000422  00000-0  00000-0 0  9997
2 62337   3.1373  79.4147 0643357  54.2478 312.0165  1.00215323  7114

Volg GAOFEN 13 DEB in realtime met AllMySat

Download on the App Store